ATLAS 5 CENTAUR DEB, 57595

Orbit data source: Space-Track

ATLAS 5 CENTAUR DEB, 57595 is space debris in HEO originally from a launch on Wed, 17 Oct 2018 UTC launched from the Air Force Eastern Test Range (AFETR). Debris objects in space refer to the collection of defunct objects orbiting the Earth. Examples of debris include non-operational satellites, rocket bodies, and fragments generated from explosions, collisions, or faulty payload assembly.

Loading next visibility...
Identifier
57595, 2018-079HW
Orbit
HEO
Country
Flag of USUS
Related business
Flag of USUnited Launch Alliance/Lockheed Martin (US)
Manufacturer
ULA Decatur
Mission
Spacecraft
Bus & Motor
Unknown
Mass
Unknown
Launch date (UTC)
2018-10-17 (7 years ago)
Launch vehicle
Unknown
Launch site
Air Force Eastern Test Range (AFETR)
Object type
Payload
Rocket body
Debris
Shape & HBR
Unknown shape, 1.1 m
Radar Cross Section
RCS unknown

Expand to show TLE details & history
Last TLE update: 2 days ago

TLE from 2 days ago
0 ATLAS 5 CENTAUR DEB
1 57595U 18079HW  25340.17896972 -.00000104  00000-0  00000-0 0  9995
2 57595  12.3328  86.4151 4694566 212.2850 107.4191  1.69243137 25003
Epoch: 2025-12-06T04:17Z
TLE epoch observation values (Epoch: 2025-12-06T04:17:42.983Z)
Latitude
0.00001°
Longitude
-53.32094°
Altitude
32,088.879 km
Speed
2.706 km/s
True Right ascension
05h 45m 16s
True Declination
0° 00' 00"
Sunlit
Object was in daylight at epoch
Visualization orbit readout
Latitude
Unknown
Longitude
Unknown
Altitude
Unknown
Speed
Unknown
Apparent Right ascension
Unknown
Apparent Declination
Unknown
Sunlit
N/A
Visualization observer readout
Local Sidereal Time
21:28:36
Azimuth
Unknown
Elevation
Unknown
Doppler factor
Unknown
Orbital elements
Apogee altitude
37,331.858 km
Perigee altitude
9,403.24 km
Semi-major axis
29,745.686 km
Eccentricity
0.46946
Inclination
12.3328°
RAAN
86.4151°
Arg. of periapsis
212.285°
True anomaly
147.65797°
Mean anomaly
107.4191°
Eccentric anomaly
128.47647°
Mean motion
0.42307 °/min
Orbital period
850.93 mins
BSTAR
0
Loading maneuver chart data...
Computing Atmospheric mass density...

Documentation

Showing up to 5 results
|